Accueil
METAR-TAF:

METAR-TAF

Aéroports :

Nevers, France

Aéroport de Nevers-Fourchambault

latitude: 47-00N, longitude: 003-06E, altitude: 180 m

Observation

Le bulletin a été fait il y a 1 heure et 29 minutes, à 17:00 UTC
Vent 3 kt de ouest
Température 2°C
Humidité 93%
Pression 1021 hPa
Visibilité 10 km ou plus
Quelques nuages à une hauteur de 3400 ft
Nuages épars à une hauteur de 4700 ft

METAR: LFQG 161700Z AUTO 26003KT 9999 FEW034 SCT047 02/01 Q1021

Heure: 19:29 (18:29 UTC)


TAF: absent

Observations et prévisions météorologiques de plus de 4000 aéroports (messages METAR et TAF).

Les stations disponibles sont représentées par des disques jaunes et rouges sur la carte.

Passer la souris dessus pour voir le nom de la station.

Cliquer dessus pour voir les observations et prévisions météorologiques.

Pour changer de carte: cliquez sur les boutons verts avec une croix noire pour zoomer, sur le bouton vert avec un tiret pour effectuer un zoom arrière, ou sur les flèches vertes pour les cartes adjacentes.


METAR-TAF: